KC3BHK-2 Weather Reports


Display with metric or nautical units.
time (UTC)temp
F
wind
direction
speed
MPH
gust
MPH
rain 1hr
in
rain 24hr
in
rain mn
in
humidity
%
barometer
mb
20260905034316 74 132 3.0 6.0 0.00 0.00 0.00
20260905033811 72 131 4.0 6.0 0.00 0.00 0.00
20260905033306 72 122 4.0 4.0 0.00 0.00 0.00
20260905032758 73 121 2.0 5.0 0.00 0.00 0.00
20260905032253 72 105 2.0 2.0 0.00 0.00 0.00
20260905031749 72 79 0.0 2.0 0.00 0.00 0.00
20260905031244 72 79 0.0 2.0 0.00 0.00 0.00
20260905030738 73 125 0.0 1.0 0.00 0.00 0.00
20260905030233 73 135 0.0 4.0 0.00 0.00 0.00
20260905025725 72 180 2.0 4.0 0.00 0.00 0.00
20260905025221 72 207 3.0 5.0 0.00 0.00 0.00
20260905024716 72 231 4.0 5.0 0.00 0.00 0.00
20260905023706 71 208 3.0 4.0 0.00 0.00 0.00
20260905023201 72 193 2.0 4.0 0.00 0.00 0.00
20260905022653 72 200 3.0 4.0 0.00 0.00 0.00
20260905022148 71 203 2.0 3.0 0.00 0.00 0.00
20260905021643 71 259 0.0 0.0 0.00 0.00 0.00
20260905021259 71 259 0.0 0.0 0.00 0.00 0.00
20260905021138 71 259 0.0 0.0 0.00 0.00 0.00
20260905020633 71 259 0.0 0.0 0.00 0.00 0.00
20260905015621 71 259 0.0 0.0 0.00 0.00 0.00
20260905015116 73 259 0.0 0.0 0.00 0.00 0.00
20260905014611 72 259 0.0 0.0 0.00 0.00 0.00
20260905014106 71 259 0.0 0.0 0.00 0.00 0.00
20260905013602 73 259 0.0 0.0 0.00 0.00 0.00
20260905013057 73 259 0.0 0.0 0.00 0.00 0.00
20260905012548 72 259 0.0 0.0 0.00 0.00 0.00
20260905012042 73 259 0.0 0.0 0.00 0.00 0.00
20260905011537 74 259 0.0 0.0 0.00 0.00 0.00
20260905011032 73 259 0.0 0.0 0.00 0.00 0.00
20260905010528 74 259 0.0 0.0 0.00 0.00 0.00
20260905010230 76 270 3.0 6.0 0.00 0.00 0.00
20260905010023 76 259 0.0 0.0 0.00 0.00 0.00
20260905005515 74 259 0.0 3.0 0.00 0.00 0.00
20260905004505 76 270 3.0 6.0 0.00 0.00 0.00
20260905004000 75 263 4.0 6.0 0.00 0.00 0.00
20260905002951 75 273 7.0 6.0 0.00 0.00 0.00
20260905002443 76 228 4.0 4.0 0.00 0.00 0.00
20260905001938 76 228 2.0 4.0 0.00 0.00 0.00
20260905001433 75 172 0.0 0.0 0.00 0.00 0.00
20260905000929 75 75 0.0 3.0 0.00 0.00 0.00
20260905000424 77 75 0.0 0.0 0.00 0.00 0.00
20260904235919 76 259 0.0 2.0 0.00 0.00 0.00
20260904235411 77 259 0.0 2.0 0.00 0.00 0.00
20260904234401 76 203 2.0 4.0 0.00 0.00 0.00
20260904233857 77 218 2.0 5.0 0.00 0.00 0.00
20260904233352 76 197 2.0 5.0 0.00 0.00 0.00
20260904232847 77 228 4.0 6.0 0.00 0.00 0.00
20260904232339 77 212 4.0 8.0 0.00 0.00 0.00
20260904231835 79 245 5.0 7.0 0.00 0.00 0.00
20260904225815 80 255 5.0 10.0 0.00 0.00 0.00
20260904225308 80 260 6.0 8.0 0.00 0.00 0.00
20260904224803 80 267 3.0 8.0 0.00 0.00 0.00
20260904224600 81 283 5.0 5.0 0.00 0.00 0.00
20260904224258 80 269 5.0 7.0 0.00 0.00 0.00
20260904223753 80 226 6.0 8.0 0.00 0.00 0.00
20260904223249 81 283 5.0 5.0 0.00 0.00 0.00
20260904222744 80 221 3.0 4.0 0.00 0.00 0.00
20260904222236 81 242 3.0 5.0 0.00 0.00 0.00
20260904221732 82 207 2.0 5.0 0.00 0.00 0.00
20260904221227 82 197 3.0 5.0 0.00 0.00 0.00
20260904220721 82 221 3.0 4.0 0.00 0.00 0.00
20260904220216 83 177 2.0 3.0 0.00 0.00 0.00
20260904215711 82 165 1.0 3.0 0.00 0.00 0.00
20260904215204 83 142 0.0 0.0 0.00 0.00 0.00
20260904214659 82 142 0.0 2.0 0.00 0.00 0.00
20260904214153 84 160 1.0 3.0 0.00 0.00 0.00
20260904213143 83 104 0.0 0.0 0.00 0.00 0.00
20260904212638 85 104 0.0 0.0 0.00 0.00 0.00
20260904212131 83 104 0.0 1.0 0.00 0.00 0.00
20260904211626 83 129 0.0 1.0 0.00 0.00 0.00
20260904211121 83 165 1.0 2.0 0.00 0.00 0.00
20260904210616 82 215 1.0 4.0 0.00 0.00 0.00
20260904210112 83 242 2.0 4.0 0.00 0.00 0.00
20260904205607 81 240 4.0 3.0 0.00 0.00 0.00
20260904205059 82 218 2.0 3.0 0.00 0.00 0.00
20260904204049 80 228 2.0 3.0 0.00 0.00 0.00
20260904203545 79 217 2.0 2.0 0.00 0.00 0.00
20260904203040 81 139 1.0 2.0 0.00 0.00 0.00
20260904202535 80 172 2.0 1.0 0.00 0.00 0.00
20260904202027 80 87 0.0 0.0 0.00 0.00 0.00
20260904201522 81 87 0.0 0.0 0.00 0.00 0.00
20260904201018 82 87 0.0 0.0 0.00 0.00 0.00
20260904200008 83 87 0.0 1.0 0.00 0.00 0.00
20260904195504 85 87 0.0 2.0 0.00 0.00 0.00
20260904194956 85 30 0.0 0.0 0.00 0.00 0.00
20260904194451 85 30 0.0 2.0 0.00 0.00 0.00
20260904193946 86 30 0.0 2.0 0.00 0.00 0.00
20260904193442 86 309 1.0 4.0 0.00 0.00 0.00
20260904192937 87 245 1.0 5.0 0.00 0.00 0.00
20260904192432 89 288 2.0 6.0 0.00 0.00 0.00
20260904191924 89 263 1.0 8.0 0.00 0.00 0.00
20260904191419 89 30 2.0 9.0 0.00 0.00 0.00
20260904190914 89 271 4.0 5.0 0.00 0.00 0.00
20260904185903 91 188 1.0 2.0 0.00 0.00 0.00
20260904185358 92 188 0.0 3.0 0.00 0.00 0.00
20260904184849 94 10 0.0 5.0 0.00 0.00 0.00
20260904183838 94 288 0.0 5.0 0.00 0.00 0.00
20260904183333 93 293 3.0 6.0 0.00 0.00 0.00
20260904182828 91 297 1.0 12.0 0.00 0.00 0.00
20260904182323 91 271 2.0 9.0 0.00 0.00 0.00
20260904181815 92 257 7.0 6.0 0.00 0.00 0.00
20260904181310 93 266 4.0 9.0 0.00 0.00 0.00
20260904180805 93 293 2.0 12.0 0.00 0.00 0.00
20260904180301 93 298 5.0 9.0 0.00 0.00 0.00
20260904175756 93 283 3.0 10.0 0.00 0.00 0.00
20260904175251 93 273 6.0 8.0 0.00 0.00 0.00
20260904174740 92 347 1.0 5.0 0.00 0.00 0.00
20260904174235 91 280 4.0 12.0 0.00 0.00 0.00
20260904173730 88 354 1.0 12.0 0.00 0.00 0.00
20260904173226 88 314 4.0 14.0 0.00 0.00 0.00
20260904172721 88 253 7.0 12.0 0.00 0.00 0.00
20260904172216 89 266 4.0 12.0 0.00 0.00 0.00
20260904171708 90 278 6.0 8.0 0.00 0.00 0.00
20260904171203 90 352 1.0 6.0 0.00 0.00 0.00
20260904170658 90 276 5.0 9.0 0.00 0.00 0.00
20260904170154 90 309 4.0 9.0 0.00 0.00 0.00
20260904165649 90 302 6.0 9.0 0.00 0.00 0.00
20260904165144 89 274 0.0 10.0 0.00 0.00 0.00
20260904164636 88 262 1.0 9.0 0.00 0.00 0.00
20260904164131 89 293 5.0 10.0 0.00 0.00 0.00
20260904163626 89 14 3.0 11.0 0.00 0.00 0.00
20260904163121 89 267 8.0 5.0 0.00 0.00 0.00
20260904162617 88 18 1.0 7.0 0.00 0.00 0.00
20260904162112 88 219 1.0 8.0 0.00 0.00 0.00
20260904161603 86 283 5.0 11.0 0.00 0.00 0.00
20260904161058 87 356 0.0 8.0 0.00 0.00 0.00
20260904160553 87 274 6.0 9.0 0.00 0.00 0.00
20260904160048 88 290 5.0 4.0 0.00 0.00 0.00
20260904155544 87 269 4.0 8.0 0.00 0.00 0.00
20260904155039 87 269 4.0 9.0 0.00 0.00 0.00
20260904154531 87 283 2.0 5.0 0.00 0.00 0.00
20260904154026 86 346 1.0 6.0 0.00 0.00 0.00
20260904153521 87 219 1.0 7.0 0.00 0.00 0.00
20260904153016 84 273 3.0 10.0 0.00 0.00 0.00
20260904152512 85 264 5.0 10.0 0.00 0.00 0.00
20260904152007 86 246 6.0 6.0 0.00 0.00 0.00
20260904151458 84 253 2.0 8.0 0.00 0.00 0.00
20260904150449 83 285 2.0 11.0 0.00 0.00 0.00
20260904145944 82 246 6.0 10.0 0.00 0.00 0.00
20260904145439 82 281 6.0 12.0 0.00 0.00 0.00
20260904144934 82 233 7.0 10.0 0.00 0.00 0.00
20260904143921 84 269 5.0 9.0 0.00 0.00 0.00
20260904143417 82 294 2.0 11.0 0.00 0.00 0.00
20260904142912 81 263 6.0 13.0 0.00 0.00 0.00
20260904142407 80 255 7.0 11.0 0.00 0.00 0.00
20260904141903 80 280 5.0 11.0 0.00 0.00 0.00
20260904140849 79 269 10.0 13.0 0.00 0.00 0.00
20260904140345 79 270 6.0 13.0 0.00 0.00 0.00
20260904135840 78 273 10.0 10.0 0.00 0.00 0.00
20260904135335 77 287 5.0 9.0 0.00 0.00 0.00
20260904134830 76 257 5.0 9.0 0.00 0.00 0.00
20260904134322 76 322 2.0 8.0 0.00 0.00 0.00
20260904133856 79 285 4.0 7.0 0.00 0.00 0.00
20260904133818 79 285 4.0 7.0 0.00 0.00 0.00
20260904133313 77 276 5.0 8.0 0.00 0.00 0.00
20260904132808 78 287 3.0 8.0 0.00 0.00 0.00
20260904132306 79 231 5.0 9.0 0.00 0.00 0.00
20260904131758 79 274 7.0 7.0 0.00 0.00 0.00
20260904131251 80 354 2.0 7.0 0.00 0.00 0.00
20260904130746 77 293 6.0 8.0 0.00 0.00 0.00
20260904130241 77 264 5.0 8.0 0.00 0.00 0.00
20260904125736 76 256 4.0 7.0 0.00 0.00 0.00
20260904125231 77 257 5.0 3.0 0.00 0.00 0.00
20260904124726 75 193 1.0 5.0 0.00 0.00 0.00
20260904124219 74 155 4.0 4.0 0.00 0.00 0.00
20260904123714 75 260 3.0 4.0 0.00 0.00 0.00
20260904123209 74 281 2.0 4.0 0.00 0.00 0.00
20260904122703 74 267 3.0 2.0 0.00 0.00 0.00
20260904122158 73 240 0.0 0.0 0.00 0.00 0.00
20260904121653 73 162 0.0 0.0 0.00 0.00 0.00
20260904121145 73 162 0.0 0.0 0.00 0.00 0.00
20260904120640 72 162 0.0 0.0 0.00 0.00 0.00
20260904120136 72 162 0.0 0.0 0.00 0.00 0.00
20260904115629 72 162 0.0 0.0 0.00 0.00 0.00
20260904115124 70 162 0.0 0.0 0.00 0.00 0.00
20260904114620 71 162 0.0 0.0 0.00 0.00 0.00
20260904114112 70 162 0.0 2.0 0.00 0.00 0.00
20260904113607 70 195 1.0 3.0 0.00 0.00 0.00
20260904113102 70 162 2.0 4.0 0.00 0.00 0.00
20260904112557 69 139 2.0 5.0 0.00 0.00 0.00
20260904112052 69 117 4.0 5.0 0.00 0.00 0.00
20260904111546 68 134 2.0 4.0 0.00 0.00 0.00
20260904111039 68 173 0.0 0.0 0.00 0.00 0.00
20260904110534 68 173 0.0 3.0 0.00 0.00 0.00
20260904105524 68 73 0.0 0.0 0.00 0.00 0.00
20260904105019 68 73 0.0 3.0 0.00 0.00 0.00
20260904104514 69 111 3.0 3.0 0.00 0.00 0.00
20260904104006 68 55 0.0 2.0 0.00 0.00 0.00
20260904103501 68 98 0.0 4.0 0.00 0.00 0.00
20260904102956 68 115 0.0 3.0 0.00 0.00 0.00
20260904102451 69 125 1.0 4.0 0.00 0.00 0.00
20260904101946 68 197 0.0 5.0 0.00 0.00 0.00
20260904101441 68 267 3.0 0.0 0.00 0.00 0.00
20260904100427 69 100 0.0 0.0 0.00 0.00 0.00
20260904095922 67 100 0.0 0.0 0.00 0.00 0.00
20260904095417 69 100 0.0 0.0 0.00 0.00 0.00
20260904094912 68 100 0.0 0.0 0.00 0.00 0.00
20260904094408 69 100 0.0 0.0 0.00 0.00 0.00
20260904093900 69 100 0.0 0.0 0.00 0.00 0.00
20260904093355 68 100 0.0 0.0 0.00 0.00 0.00
20260904092345 68 100 0.0 0.0 0.00 0.00 0.00
20260904091840 67 100 0.0 2.0 0.00 0.00 0.00
20260904091335 69 100 0.0 4.0 0.00 0.00 0.00
20260904090826 69 125 4.0 5.0 0.00 0.00 0.00
20260904090320 70 28 1.0 0.0 0.00 0.00 0.00
20260904085815 69 165 0.0 0.0 0.00 0.00 0.00
20260904085310 69 165 0.0 4.0 0.00 0.00 0.00
20260904084805 69 165 0.0 0.0 0.00 0.00 0.00
20260904084300 69 117 0.0 6.0 0.00 0.00 0.00
20260904083752 68 118 2.0 5.0 0.00 0.00 0.00
20260904083248 69 163 3.0 5.0 0.00 0.00 0.00
20260904082743 69 121 4.0 3.0 0.00 0.00 0.00
20260904082238 68 118 2.0 4.0 0.00 0.00 0.00
20260904081228 68 212 0.0 2.0 0.00 0.00 0.00
20260904080720 69 75 0.0 0.0 0.00 0.00 0.00
20260904080215 68 75 0.0 3.0 0.00 0.00 0.00
20260904075206 69 124 1.0 3.0 0.00 0.00 0.00
20260904074701 67 98 1.0 0.0 0.00 0.00 0.00
20260904074156 68 86 0.0 2.0 0.00 0.00 0.00
20260904073648 69 55 0.0 2.0 0.00 0.00 0.00
20260904072638 68 143 1.0 4.0 0.00 0.00 0.00
20260904071628 68 225 0.0 0.0 0.00 0.00 0.00
20260904071124 68 225 0.0 2.0 0.00 0.00 0.00
20260904070616 68 225 0.0 1.0 0.00 0.00 0.00
20260904070111 68 124 0.0 1.0 0.00 0.00 0.00
20260904065606 68 90 0.0 2.0 0.00 0.00 0.00
20260904065101 68 104 2.0 0.0 0.00 0.00 0.00
20260904064556 68 240 0.0 0.0 0.00 0.00 0.00
20260904064051 67 240 0.0 0.0 0.00 0.00 0.00
20260904063543 69 240 0.0 2.0 0.00 0.00 0.00
20260904063038 67 240 1.0 0.0 0.00 0.00 0.00
20260904062531 69 232 0.0 5.0 0.00 0.00 0.00
20260904062026 68 287 4.0 5.0 0.00 0.00 0.00
20260904061521 69 25 0.0 2.0 0.00 0.00 0.00
20260904060509 69 118 0.0 4.0 0.00 0.00 0.00
20260904055459 70 184 1.0 6.0 0.00 0.00 0.00
20260904054448 69 228 6.0 10.0 0.00 0.00 0.00
20260904053944 69 252 4.0 12.0 0.00 0.00 0.00
20260904053436 69 283 11.0 14.0 0.00 0.00 0.00
20260904052931 70 248 13.0 11.0 0.00 0.00 0.00
20260904052426 69 293 6.0 11.0 0.00 0.00 0.00
20260904051416 69 288 3.0 9.0 0.00 0.00 0.00
20260904050404 69 207 6.0 10.0 0.00 0.00 0.00
20260904045859 69 242 7.0 10.0 0.00 0.00 0.00
20260904045353 69 217 5.0 8.0 0.00 0.00 0.00
20260904044848 69 204 4.0 6.0 0.00 0.00 0.00
20260904044343 70 184 4.0 6.0 0.00 0.00 0.00
20260904043838 70 197 4.0 8.0 0.00 0.00 0.00
20260904043331 70 210 5.0 11.0 0.00 0.00 0.00
20260904041816 70 155 5.0 5.0 0.00 0.00 0.00
20260904041311 70 124 3.0 1.0 0.00 0.00 0.00
20260904040258 70 80 0.0 8.0 0.00 0.00 0.00
20260904035753 69 243 3.0 10.0 0.00 0.00 0.00
20260904035248 70 309 1.0 11.0 0.00 0.00 0.00
20260904034743 70 321 4.0 9.0 0.00 0.00 0.00